TheGetRank SiteMap Page 2547
Home 2497 2498 2499 2500 2501 2502 2503 2504 2505 2506 2507 2508 2509 2510 2511 2512 2513 2514 2515 2516 2517 2518 2519 2520 2521 2522 2523 2524 2525 2526 2527 2528 2529 2530 2531 2532 2533 2534 2535 2536 2537 2538 2539 2540 2541 2542 2543 2544 2545 2546 2547 2548 2549 2550 2551 2552 2553 2554 2555 2556 2557 2558 2559 2560 2561 2562 2563 2564 2565 2566 2567 2568 2569 2570 2571 2572 2573 2574 2575 2576 2577 2578 2579 2580 2581 2582 2583 2584 2585 2586 2587 2588 2589 2590 2591 2592 2593 2594 2595 2596 2597
S.NO. Website Pagerank Alexa Rank Last Updated
2546000 e-furin.com 0 No Rank 2011-09-20 01:26:07
2546001 berrypr.com 2 12249278 2011-09-20 01:26:08
2546002 vi2.krsk.ru 4 907367 2011-09-20 01:26:09
2546003 deltasafetyservices.com 1 No Rank 2011-09-20 01:26:11
2546004 dbdrags.com 2 No Rank 2011-09-20 01:26:11
2546005 delraybeachcondosforsale.com 0 No Rank 2011-09-20 01:26:13
2546006 pemalve.com 0 No Rank 2011-09-20 01:26:14
2546007 hairdresserswirral.co.uk 0 12436590 2011-09-20 01:26:16
2546008 ye-para.com 2 No Rank 2011-09-20 01:26:19
2546009 3dvision.gr 2 17076318 2011-09-20 01:26:19
2546010 vkirov.info 0 No Rank 2011-09-20 01:26:20
2546011 teepakthai.com 4 1467178 2011-09-20 01:26:20
2546012 fysiofit.be 2 No Rank 2011-09-20 01:26:21
2546013 clininet.be 1 17516857 2011-09-20 01:26:22
2546014 jaggers.net 0 No Rank 2011-09-20 01:26:23
2546015 ccitdg.info 0 No Rank 2011-09-20 01:26:23
2546016 gaochin.com 0 No Rank 2011-09-20 01:26:30
2546017 delhargis.com 0 12972245 2011-09-20 01:26:31
2546018 impentab.no 2 12285965 2011-09-20 01:26:31
2546019 baraken.com 1 No Rank 2011-09-20 01:26:32
2546020 indexed.ydirs.de 0 14957670 2011-09-20 01:26:32
2546021 boolimp.com 3 12636548 2011-09-20 01:26:34
2546022 newriver.tv 2 2204321 2011-09-20 01:26:34
2546023 isitech.com 4 7494743 2011-09-21 13:23:22
2546024 atm-s.co.jp 0 613395 2011-09-20 01:26:34
2546025 sansook.com 3 27792774 2011-09-20 01:26:36
2546026 i-power.com 0 24758080 2011-09-20 01:26:38
2546027 imcoach.com 2 2372870 2011-09-20 01:26:40
2546028 delorenzocomics.com 0 10915086 2011-09-20 01:26:41
2546029 vesuchet.ru 4 2280518 2011-09-20 01:26:41
2546030 karkain.com 0 No Rank 2011-09-20 01:26:41
2546031 dekstkd.com 2 No Rank 2011-09-20 01:26:42
2546032 sparrowhealth.net 4 No Rank 2011-09-20 01:26:45
2546033 dentalea.ru 3 No Rank 2011-09-20 01:26:45
2546034 stylenet.de 0 No Rank 2011-09-20 01:26:47
2546035 gwsblaw.com 0 No Rank 2011-09-20 01:26:48
2546036 dekon.no 1 No Rank 2011-09-20 01:26:51
2546037 dekoparket.com 1 No Rank 2011-09-20 01:26:53
2546038 onwikis.com 0 No Rank 2011-09-20 01:26:53
2546039 presbia.com 3 6293182 2011-09-20 01:26:54
2546040 theicgo.com 0 No Rank 2011-09-20 01:26:54
2546041 acneabc.com 2 20519008 2011-09-20 01:26:56
2546042 dejacobshoeve.nl 2 18442360 2011-09-20 01:26:57
2546043 gimmail.com 0 22530400 2011-09-20 01:27:00
2546044 cha8582.com 0 No Rank 2011-09-21 12:41:27
2546045 deercreekwatershed.com 1 22675139 2011-09-20 01:27:02
2546046 jpsun.co.kr 0 No Rank 2011-09-21 12:56:28
2546047 cmsasia.net 0 13603865 2011-09-20 01:27:03
2546048 coraldao.eu 3 No Rank 2011-09-20 01:27:05
2546049 promonta.rs 0 No Rank 2011-09-20 01:27:05
2546050 tisa.org.rs 3 21283128 2011-09-20 01:27:06
2546051 bgdauto.com 0 No Rank 2011-09-20 01:27:06
2546052 deepc.com 0 No Rank 2011-09-20 01:27:06
2546053 bordmer.com 2 11767876 2011-09-20 01:27:07
2546054 pintoys.com 4 2023319 2011-09-20 01:27:08
2546055 deemuraliterary.com 0 No Rank 2011-09-20 01:27:09
2546056 texnikoi.gr 4 3010014 2011-09-20 01:27:10
2546057 deddingtonradio.com 2 No Rank 2011-09-20 01:27:11
2546058 wako-eng.jp 1 No Rank 2011-09-20 01:27:11
2546059 hirotomo.jp 1 No Rank 2011-09-20 01:27:12
2546060 rajvats.com 3 20151701 2011-09-20 01:27:13
2546061 facegame.de 0 No Rank 2011-09-20 01:27:13
2546062 dedad.de 0 No Rank 2011-09-20 01:27:14
2546063 megam01.com 2 No Rank 2011-09-20 01:27:15
2546064 longbus.com 1 No Rank 2011-09-20 01:27:16
2546065 decolee.com 0 No Rank 2011-09-20 01:27:17
2546066 kichari.com 0 No Rank 2011-09-20 01:27:18
2546067 pcdandm.com 5 No Rank 2011-09-20 01:27:20
2546068 tangali.com 0 No Rank 2011-09-20 01:27:20
2546069 decluttermyhometips.com 0 No Rank 2011-09-20 01:27:23
2546070 decampfamily.com 1 18035546 2011-09-20 01:27:24
2546071 5588258.com 0 No Rank 2011-09-21 15:01:15
2546072 decadencecouture.co.za 0 No Rank 2011-09-20 01:27:26
2546073 vmi-jit.com 0 No Rank 2011-09-20 01:27:29
2546074 fungusandtreatments.com 0 No Rank 2011-09-20 01:27:30
2546075 deborahross.org 2 13317495 2011-09-20 01:27:31
2546076 appluna.com 0 No Rank 2011-09-21 14:42:41
2546077 juu-see.net 1 No Rank 2011-09-20 01:27:31
2546078 ccc.iit.edu 5 42388 2011-09-20 01:27:32
2546079 officiel.ru 2 312017 2011-09-20 01:27:32
2546080 deborahdegraffenreid.com 1 No Rank 2011-09-20 01:27:35
2546081 deborahbigeleisen.com 1 19716597 2011-09-20 01:27:36
2546082 positron.ch 2 25602286 2011-09-20 01:27:37
2546083 alpn.edu.au 5 7531443 2011-09-20 01:27:37
2546084 debbiegrattan.com 4 2612335 2011-09-20 01:27:39
2546085 deangel.us 0 No Rank 2011-09-20 01:27:40
2546086 crestron.ru 3 4234478 2011-09-20 01:27:44
2546087 aremsys.com 0 No Rank 2011-09-20 01:27:46
2546088 awer.aha.ru 3 27415 2011-09-20 01:27:46
2546089 deandavisarchitect.com 0 No Rank 2011-09-20 01:27:47
2546090 stancons.ru 2 6040573 2011-09-20 01:27:48
2546091 hyperion.gr 1 No Rank 2011-09-20 01:27:48
2546092 nzr7hob.com 0 1545781 2011-09-20 01:27:49
2546093 iballet.com 3 3006267 2011-09-20 01:27:50
2546094 dealtub.com 0 No Rank 2011-09-20 01:27:50
2546095 waflonline.com.au 4 9065208 2011-09-20 01:27:53
2546096 drflinn.com 0 11258771 2011-09-20 01:27:53
2546097 cmcpraha.cz 5 2480488 2011-09-20 01:27:55
2546098 wsjr.hovezi.tk 0 No Rank 2011-09-20 01:27:55
2546099 de-tread.com 1 No Rank 2011-09-20 01:27:56
2546100 de.przeszczepianiewlosow.pl 2 No Rank 2011-09-21 15:34:59
2546101 kachimo.com 3 No Rank 2011-09-20 01:27:56
2546102 xmtz.efw.cn 4 60239 2011-09-20 01:27:58
2546103 k12ltsp.org 5 2153339 2011-09-20 01:27:58
2546104 de-pletskaldede-ulve.dk 2 No Rank 2011-09-20 01:28:00
2546105 iwebnet.org 3 1019843 2011-09-20 01:28:01
2546106 laohupo.com 0 No Rank 2011-09-20 01:28:02
2546107 amn2011.org 2 No Rank 2011-09-20 01:28:04
2546108 wafl.com.au 4 1415104 2011-09-20 01:28:05
2546109 dbxtoeml.com 0 No Rank 2011-09-20 01:28:05
2546110 ddbhopal.nic.in 3 9981956 2011-09-20 01:28:07
2546111 dbxfilerepair.com 3 3532784 2011-09-20 01:28:09
2546112 pdamart.com 6 No Rank 2011-09-20 01:28:09
2546113 bltyapi.com 0 18512699 2011-09-20 01:28:09
2546114 savorystone.com 1 647859 2011-09-20 01:28:12
2546115 premierf.cn 1 No Rank 2011-09-20 01:28:15
2546116 thaicomic.com 4 1214670 2011-09-20 01:28:15
2546117 forum.wafl.com.au 3 1415104 2011-09-20 01:28:15
2546118 dbgilmore.com 1 No Rank 2011-09-20 01:28:16
2546119 lordcdvd.ir 0 1646661 2011-09-20 01:28:18
2546120 aborang.com 0 23605251 2011-09-20 01:28:18
2546121 mihan3d.com 0 6920689 2011-09-20 01:28:19
2546122 commission-central.ydir.de 0 21440249 2011-09-20 01:28:19
2546123 dawnharvey.biz 3 No Rank 2011-09-20 01:28:20
2546124 westpole.gr 4 23966187 2011-09-20 01:28:20
2546125 landtic.com 0 No Rank 2011-09-20 01:28:22
2546126 daxiang2008.com 1 4226335 2011-09-20 01:28:22
2546127 weryoung.nl 2 7472134 2011-09-20 01:28:24
2546128 davydova-art.ru 1 No Rank 2011-09-20 01:28:25
2546129 hokkaido-tabi.net 1 No Rank 2011-09-20 01:28:25
2546130 forum.waflonline.com.au 3 9065208 2011-09-20 01:28:25
2546131 davis-tooling.com 0 No Rank 2011-09-20 01:28:25
2546132 cabclean.nl 1 No Rank 2011-09-21 15:13:30
2546133 mrfunnel.nl 0 No Rank 2011-09-20 01:28:26
2546134 clan-qc.com 1 No Rank 2011-09-20 01:28:26
2546135 sa-arabic.com 4 28438146 2011-09-20 01:28:29
2546136 turnbull.ca 4 5126374 2011-09-20 01:28:30
2546137 davidwahl.com 2 No Rank 2011-09-20 01:28:30
2546138 gagarinflat.narod.ru 0 239 2011-09-20 01:28:30
2546139 ny-taxi.com 1 No Rank 2011-09-21 14:44:34
2546140 identic.com 2 6867544 2011-09-20 01:28:32
2546141 ydirs.de.pe 0 No Rank 2011-09-20 01:28:33
2546142 ydir.de.pe 0 No Rank 2011-09-20 01:28:34
2546143 davidsmusichouse.com 2 13644987 2011-09-20 01:28:34
2546144 davidrothmagic.com 0 No Rank 2011-09-20 01:28:34
2546145 davidalt.com 0 No Rank 2011-09-20 01:28:38
2546146 davidbarnesphotographer.com 2 No Rank 2011-09-20 01:28:38
2546147 ibwales.com 5 4316232 2011-09-20 01:28:38
2546148 cxlp.com.cn 1 No Rank 2011-09-20 01:28:40
2546149 ysatech.com 4 413879 2011-09-20 01:28:41
2546150 cxfz.com.cn 1 No Rank 2011-09-20 01:28:41
2546151 we.care.org 6 149178 2011-09-20 01:28:42
2546152 david.massy.free.fr 1 207 2011-09-20 01:28:42
2546153 negoism.com 0 1146808 2011-09-20 01:28:42
2546154 sars.org.uk 4 10902560 2011-09-20 01:28:43
2546155 davedabbhomes.com 0 No Rank 2011-09-20 01:28:44
2546156 contactus.hovezi.tk 0 No Rank 2011-09-20 01:28:45
2546157 myexpert.ir 3 53651 2011-09-20 01:28:47
2546158 resiste.org 1 24442685 2011-09-20 01:28:47
2546159 datummedical.com 1 No Rank 2011-09-20 01:28:48
2546160 hopefarm.jp 2 No Rank 2011-09-21 13:32:30
2546161 datastor-ne.com 0 15053411 2011-09-20 01:28:49
2546162 toioski.net 0 No Rank 2011-09-20 01:28:50
2546163 lemosac.com 0 No Rank 2011-09-20 01:28:51
2546164 holdemparty.net 0 No Rank 2011-09-20 01:28:52
2546165 datapardaz.com 1 No Rank 2011-09-20 01:28:52
2546166 darts.ch 3 27106012 2011-09-20 01:28:54
2546167 xygrain.com 4 No Rank 2011-09-20 01:28:55
2546168 toda-pm.com 3 No Rank 2011-09-20 01:28:56
2546169 darter.com 2 4604534 2011-09-20 01:28:56
2546170 katchop.com 1 5346393 2011-09-21 14:10:25
2546171 bufsinc.com 0 No Rank 2011-09-20 01:28:57
2546172 dartcom-03.com 0 No Rank 2011-09-20 01:28:57
2546173 xohbala.com 3 1689183 2011-09-20 01:28:58
2546174 radfuchs.at 2 24394433 2011-09-20 01:28:59
2546175 revivalboats.com.au 3 No Rank 2011-09-20 01:29:00
2546176 icrc2009.ir 3 21545978 2011-09-20 01:29:00
2546177 beadmax.com 2 No Rank 2011-09-20 01:29:01
2546178 darkfantasy.org 5 3370799 2011-09-21 14:16:42
2546179 darngoodwebdesign.com 3 No Rank 2011-09-20 01:29:02
2546180 sjungnu.com 1 No Rank 2011-09-20 01:29:03
2546181 betdiary.ie 3 5442186 2011-09-20 01:29:03
2546182 gempond.com 1 15602716 2011-09-20 01:29:05
2546183 darkduck.net 4 5059032 2011-09-20 01:29:06
2546184 greendal.nl 4 No Rank 2011-09-20 01:29:06
2546185 megaflo.com 1 4005194 2011-09-20 01:29:08
2546186 mgcopias.cl 1 No Rank 2011-09-20 01:29:09
2546187 cadanchi.cl 0 No Rank 2011-09-20 01:29:09
2546188 cic-law.com 1 13758554 2011-09-20 01:29:10
2546189 tecnycon.cl 0 No Rank 2011-09-20 01:29:10
2546190 makemoney-blog.net 2 1471636 2011-09-20 01:29:11
2546191 mcdonaldauctions.com.au 2 12130564 2011-09-20 01:29:12
2546192 icw.caws.ws 3 78001 2011-09-20 01:29:12
2546193 videoye.com 1 4245456 2011-09-20 01:29:14
2546194 app.macx.cn 4 10232 2011-09-20 01:29:16
2546195 50-50-50.ru 3 610258 2011-09-20 01:29:18
2546196 club-es.com 1 No Rank 2011-09-20 01:29:21
2546197 9999ast.com 2 5216456 2011-09-20 01:29:21
2546198 house.siteafzar.com 0 22625493 2011-09-20 01:29:21
2546199 yckc.org.sg 0 15961465 2011-09-20 01:29:22
2546200 ngnum.co.il 3 28166261 2011-09-20 01:29:23
2546201 bdsmshop.sk 3 19762541 2011-09-20 01:29:24
2546202 my-chip.com 0 No Rank 2011-09-20 01:29:25
2546203 renegade.bg 2 No Rank 2011-09-20 01:29:27
2546204 speedflow.com.au 2 No Rank 2011-09-20 01:29:29
2546205 ruenagel.de 3 17775077 2011-09-20 01:29:29
2546206 lyxoretf.ch 5 5430871 2011-09-20 01:29:30
2546207 ricjobs.com 0 No Rank 2011-09-20 01:29:30
2546208 mobileap.ps 1 15283378 2011-09-20 01:29:31
2546209 ne-kuri.com 0 No Rank 2011-09-20 01:29:32
2546210 slotzal.net 0 No Rank 2011-09-21 13:02:35
2546211 r-craven.de 2 2398809 2011-09-20 01:29:34
2546212 meisina.com 1 9576595 2011-09-20 01:29:38
2546213 exelinfo.ch 4 17902382 2011-09-20 01:29:40
2546214 idec.com.au 0 7375817 2011-09-20 01:29:40
2546215 shionec.com 0 21510218 2011-09-20 01:29:40
2546216 cirlare.com 4 18465670 2011-09-20 01:29:40
2546217 hvizdala.cz 2 No Rank 2011-09-20 01:29:43
2546218 parowozy.pl 4 3937701 2011-09-20 01:29:44
2546219 thejohnston.com.au 2 21099094 2011-09-20 01:29:47
2546220 kaheawa.com 3 9432982 2011-09-20 01:29:48
2546221 e-takeda.jp 2 No Rank 2011-09-20 01:29:49
2546222 ashcara.com 1 No Rank 2011-09-20 01:29:50
2546223 olifants.de 3 4799339 2011-09-20 01:29:51
2546224 topcheat.ru 0 No Rank 2011-09-20 01:29:52
2546225 brisbane-restring.com.au 0 No Rank 2011-09-20 01:29:54
2546226 lemento.com 5 2171897 2011-09-20 01:29:54
2546227 bara2001.be 4 10655279 2011-09-20 01:29:54
2546228 305erji.com 1 No Rank 2011-09-20 01:29:56
2546229 snb.com.au 0 14367420 2011-09-20 01:29:56
2546230 printnet.be 3 4288552 2011-09-20 01:29:57
2546231 o-photo.net 0 No Rank 2011-09-20 01:29:57
2546232 wellskin.ca 1 No Rank 2011-09-20 01:29:59
2546233 actor.ydir.de 0 21440249 2011-09-20 01:30:00
2546234 commission-central.ydirs.de 0 14957670 2011-09-20 01:30:03
2546235 egr.oru.edu 3 412790 2011-09-20 01:30:03
2546236 stmarysrsl.com.au 1 No Rank 2011-09-20 01:30:04
2546237 saweddingdresses.com.au 0 8756617 2011-09-20 01:30:04
2546238 getov.botevgrad.com 1 399506 2011-09-20 01:30:05
2546239 speedbb.com 0 No Rank 2011-09-20 01:30:06
2546240 tmmvoip.com 0 18581943 2011-09-20 01:30:08
2546241 darinashbyart.com 0 21313889 2011-09-20 01:30:11
2546242 daradancers.com 2 No Rank 2011-09-20 01:30:11
2546243 barikell.it 3 No Rank 2011-09-20 01:30:15
2546244 tomyumthaiepping.com.au 0 No Rank 2011-09-20 01:30:15
2546245 sqajobs.com 3 3950344 2011-09-20 01:30:16
2546246 tacdc.com.au 1 No Rank 2011-09-20 01:30:18
2546247 lrcpoll.com 0 No Rank 2011-09-20 01:30:19
2546248 peterrabbitremoval.com.au 0 No Rank 2011-09-20 01:30:19
2546249 sgky.com.cn 3 24732447 2011-09-20 01:30:21
2546250 holiday-motel.com 3 No Rank 2011-09-20 01:30:24
2546251 daniellegirard.com 3 No Rank 2011-09-20 01:30:24
2546252 nslaser.com 2 15625582 2011-09-20 01:30:24
2546253 oasa.com.cn 1 10267502 2011-09-20 01:30:25
2546254 adriand.com 1 No Rank 2011-09-20 01:30:26
2546255 tenaru.com.au 3 8781627 2011-09-20 01:30:28
2546256 danielleclement.com 2 No Rank 2011-09-20 01:30:29
2546257 foghorn.com 4 7311050 2011-09-20 01:30:30
2546258 fdsz.bme.hu 6 40621 2011-09-20 01:30:30
2546259 justrentacar.com.au 2 6197811 2011-09-20 01:30:31
2546260 actor.ydirs.de 0 14957670 2011-09-20 01:30:35
2546261 danielgiron.info 0 No Rank 2011-09-20 01:30:35
2546262 geosynthetics.com.au 2 25593247 2011-09-20 01:30:35
2546263 dapex.com 0 No Rank 2011-09-20 01:30:35
2546264 cycpump.com 0 No Rank 2011-09-21 13:13:19
2546265 leightonmeester.us 4 397054 2011-09-20 01:30:37
2546266 realfm.com.au 3 12145385 2011-09-20 01:30:38
2546267 cbilyea.com 0 No Rank 2011-09-20 01:30:38
2546268 danielamontelongo.com 0 No Rank 2011-09-20 01:30:39
2546269 filcomsports.org.au 1 No Rank 2011-09-20 01:30:41
2546270 danherman.ca 2 No Rank 2011-09-20 01:30:44
2546271 homefed.com 0 No Rank 2011-09-20 01:30:45
2546272 danfultonconstruction.com 1 No Rank 2011-09-20 01:30:46
2546273 aspirehomes.net.au 1 5629207 2011-09-20 01:30:46
2546274 tampica.com 3 No Rank 2011-09-20 01:30:47
2546275 dandsdesigns.com 2 No Rank 2011-09-20 01:30:48
2546276 icleancarpets.com.au 1 No Rank 2011-09-20 01:30:48
2546277 forum.onejerusalem.org 4 684746 2011-09-20 01:30:51
2546278 ex-government.com.au 3 6090853 2011-09-20 01:30:51
2546279 dandhconservancy.org 2 No Rank 2011-09-20 01:30:51
2546280 jtv-mac.com 0 No Rank 2011-09-20 01:30:51
2546281 partsheaven.com.au 1 No Rank 2011-09-20 01:30:52
2546282 nbqs.net.cn 5 3743594 2011-09-21 14:59:04
2546283 agrorai.com 0 No Rank 2011-09-20 01:30:53
2546284 123party.be 1 No Rank 2011-09-20 01:30:53
2546285 pack373.com 1 No Rank 2011-09-20 01:30:53
2546286 danderydscentern.nu 2 No Rank 2011-09-20 01:30:54
2546287 cavanaghs.com.au 4 No Rank 2011-09-20 01:30:55
2546288 fotobank.cz 2 No Rank 2011-09-20 01:30:56
2546289 go-park.net 1 No Rank 2011-09-20 01:30:56
2546290 dancoverre.com 0 No Rank 2011-09-21 14:19:40
2546291 hapiness.jp 1 No Rank 2011-09-20 01:30:58
2546292 rondallacanberra.org.au 2 No Rank 2011-09-20 01:30:59
2546293 dancsokzoltan.fusz.hu 2 3252588 2011-09-21 14:11:55
2546294 sh-praha.eu 2 No Rank 2011-09-20 01:30:59
2546295 bernardi.at 0 No Rank 2011-09-20 01:30:59
2546296 raleuner.de 1 26188597 2011-09-20 01:30:59
2546297 damusroofing.com 1 No Rank 2011-09-20 01:31:01
2546298 thebeadedtable.com.au 0 No Rank 2011-09-20 01:31:02
2546299 thewhitestudio.com.au 3 16447051 2011-09-20 01:31:02
2546300 lbf-gmbh.de 0 No Rank 2011-09-20 01:31:03
2546301 belleepoqueantiques.com.au 1 19513368 2011-09-20 01:31:03
2546302 dalo.com 2 21590759 2011-09-20 01:31:04
2546303 unitedfieldandretrieving.org.au 2 22692182 2011-09-20 01:31:05
2546304 hotelfw.com 2 7052119 2011-09-20 01:31:06
2546305 dakar-adventure.com 2 No Rank 2011-09-20 01:31:06
2546306 nogiera.com 0 No Rank 2011-09-20 01:31:08
2546307 dakado.pl 1 No Rank 2011-09-20 01:31:08
2546308 innercycle.free.fr 0 207 2011-09-20 01:31:10
2546309 daisynoyes.com 1 No Rank 2011-09-20 01:31:10
2546310 muskerrymotopark.com.au 2 No Rank 2011-09-20 01:31:12
2546311 indunorm.de 3 7681532 2011-09-20 01:31:12
2546312 daisydebolt.com 3 No Rank 2011-09-20 01:31:13
2546313 weddingplannerwa.com.au 1 No Rank 2011-09-20 01:31:13
2546314 etsreus.com 4 No Rank 2011-09-20 01:31:13
2546315 dailyindore.com 0 No Rank 2011-09-21 14:26:41
2546316 dailysoccerfix.com 5 2311415 2011-09-20 01:31:19
2546317 pmtaustralia.com.au 1 No Rank 2011-09-20 01:31:20
2546318 dailydhudial.com 0 7262819 2011-09-21 12:50:04
2546319 malville.fr 2 No Rank 2011-09-20 01:31:20
2546320 thewadi.com 3 1657072 2011-09-20 01:31:21
2546321 hoganls.com 2 20065356 2011-09-20 01:31:23
2546322 dahlgrenduck.com 3 12585323 2011-09-20 01:31:24
2546323 jajo888.com 2 12666321 2011-09-20 01:31:25
2546324 isalud7.com 0 14314079 2011-09-20 01:31:26
2546325 dabroka.com 0 No Rank 2011-09-20 01:31:27
2546326 musevia.com 1 No Rank 2011-09-20 01:31:27
2546327 katesplace.com.au 2 No Rank 2011-09-20 01:31:29
2546328 anhluan.com 5 10370824 2011-09-20 01:31:29
2546329 d-actress.info 0 No Rank 2011-09-20 01:31:33
2546330 autoblog.ca 2 1648600 2011-09-20 01:31:33
2546331 rbenner.org 0 No Rank 2011-09-21 15:28:14
2546332 top.ners.ru 3 48814 2011-09-20 01:31:34
2546333 teamtpc.com 0 No Rank 2011-09-20 01:31:35
2546334 czteryporyroku.biz.pl 2 No Rank 2011-09-20 01:31:36
2546335 alothao.com 2 4083756 2011-09-20 01:31:37
2546336 deamoda.com 1 No Rank 2011-09-20 01:31:38
2546337 penergy.net 0 No Rank 2011-09-20 01:31:38
2546338 2mg.com.au 3 No Rank 2011-09-20 01:31:40
2546339 czechcemetery.com 3 14787855 2011-09-20 01:31:40
2546340 ferox-it.nl 2 No Rank 2011-09-20 01:31:42
2546341 jlbeida.com 2 No Rank 2011-09-21 11:40:25
2546342 velagic.net 0 No Rank 2011-09-20 01:31:44
2546343 naepian.com 0 No Rank 2011-09-20 01:31:44
2546344 crostar.org 0 No Rank 2011-09-20 01:31:45
2546345 asoasas.org 1 11935154 2011-09-20 01:31:45
2546346 czarnomski.com 0 No Rank 2011-09-20 01:31:46
2546347 czechfriendfinder.com 0 No Rank 2011-09-20 01:31:46
2546348 gemo-bau.de 0 No Rank 2011-09-20 01:31:46
2546349 funpuppets.net.au 1 No Rank 2011-09-20 01:31:47
2546350 cyrstalridgeconsulting.com 0 No Rank 2011-09-20 01:31:49
2546351 0873sky.com 0 No Rank 2011-09-20 01:31:51
2546352 al-islam.de 3 4742163 2011-09-20 01:31:52
2546353 gracedc.com 2 No Rank 2011-09-20 01:31:52
2546354 kuonkai.com 2 No Rank 2011-09-20 01:31:52
2546355 activrv.com.au 1 4866765 2011-09-20 01:31:53
2546356 agriconsult.com.au 1 No Rank 2011-09-20 01:31:54
2546357 cyprus-property.com 3 12412099 2011-09-20 01:31:55
2546358 anateus.com 0 No Rank 2011-09-20 01:31:55
2546359 kombest.com 1 No Rank 2011-09-20 01:31:56
2546360 tibesos.com 0 No Rank 2011-09-20 01:31:56
2546361 countryhope.com.au 3 24910401 2011-09-20 01:31:57
2546362 alkiraboats.com.au 3 7997051 2011-09-20 01:31:58
2546363 cypressrecruiting.com 3 2388396 2011-09-20 01:31:58
2546364 99sj.com.cn 5 17713463 2011-09-20 01:31:58
2546365 ryanrop.com 0 No Rank 2011-09-21 14:18:13
2546366 allwaysentertainment.com.au 1 No Rank 2011-09-20 01:31:59
2546367 leprive.biz 2 5251441 2011-09-20 01:31:59
2546368 oumandi.com 1 17142751 2011-09-20 01:32:00
2546369 meloun.ezin.cz 1 484436 2011-09-21 15:18:34
2546370 nccsweb.org 2 No Rank 2011-09-20 01:32:01
2546371 ambassadorlocksmiths.com.au 0 No Rank 2011-09-20 01:32:02
2546372 artisanembroidery.com.au 0 No Rank 2011-09-20 01:32:03
2546373 cyberhome.org 0 No Rank 2011-09-20 01:32:03
2546374 mybcdsa.org 0 No Rank 2011-09-20 01:32:06
2546375 vcbm.net.cn 0 10307534 2011-09-20 01:32:06
2546376 balmain-cottage.com.au 0 No Rank 2011-09-20 01:32:06
2546377 banaz.com.au 1 No Rank 2011-09-20 01:32:06
2546378 cwec.ca 4 No Rank 2011-09-20 01:32:07
2546379 asconveyors.com.au 1 No Rank 2011-09-20 01:32:07
2546380 benchtops.com.au 1 13269721 2011-09-20 01:32:09
2546381 pic-net.com 4 1907150 2011-09-20 01:32:11
2546382 reg.lls.edu 4 219403 2011-09-20 01:32:11
2546383 besttour.com.au 3 No Rank 2011-09-20 01:32:11
2546384 ilr.lls.edu 5 219403 2011-09-20 01:32:11
2546385 cwadevelopment.com 0 No Rank 2011-09-20 01:32:12
2546386 ebisu47.com 0 No Rank 2011-09-20 01:32:13
2546387 bongo.com.au 2 5848189 2011-09-20 01:32:14
2546388 sagacom.net 0 No Rank 2011-09-20 01:32:14
2546389 bushfurnitureman.com.au 1 20840122 2011-09-20 01:32:14
2546390 pyramidsecurity.com.au 0 6800702 2011-09-20 01:32:15
2546391 emo-love.hu 2 27655476 2011-09-20 01:32:15
2546392 lrprc.su.lt 2 363309 2011-09-20 01:32:16
2546393 hitfirm.com 1 6167563 2011-09-20 01:32:17
2546394 cvitae.org 3 13849135 2011-09-20 01:32:17
2546395 cvstudios.ca 5 13310306 2011-09-20 01:32:18
2546396 btac.nsw.edu.au 4 12555 2011-09-20 01:32:19
2546397 inventeursfous.com 4 2666015 2011-09-20 01:32:19
2546398 graffiti.hu 4 1230763 2011-09-20 01:32:20
2546399 ccelec.com.au 1 No Rank 2011-09-20 01:32:20
2546400 uupn.upn.mx 1 198958 2011-09-21 14:44:08
2546401 cellsupport.com.au 0 No Rank 2011-09-20 01:32:23
2546402 selfdefence.com.au 1 24742878 2011-09-20 01:32:23
2546403 eas.sprc.lt 3 6650796 2011-09-20 01:32:24
2546404 seonomi.com 0 No Rank 2011-09-20 01:32:24
2546405 takolako.rs 4 294950 2011-09-20 01:32:25
2546406 cut-and-install-crown-molding.com 0 18786207 2011-09-20 01:32:26
2546407 rrroars.com 0 No Rank 2011-09-20 01:32:26
2546408 sazkawa.com 3 No Rank 2011-09-20 01:32:26
2546409 climatespectator.com.au 6 208596 2011-09-20 01:32:30
2546410 customtouchinteriors.net 1 No Rank 2011-09-20 01:32:31
2546411 tudaystorage.com.au 0 No Rank 2011-09-20 01:32:31
2546412 customsteelcycles.com 0 No Rank 2011-09-20 01:32:33
2546413 musicpv.com 4 1951115 2011-09-20 01:32:33
2546414 cre8inggrowth.com.au 4 23435604 2011-09-20 01:32:37
2546415 customcookiebouquet.com 0 No Rank 2011-09-20 01:32:37
2546416 airbases.us 1 15450604 2011-09-20 01:32:39
2546417 florasearch.com.au 3 No Rank 2011-09-20 01:32:39
2546418 ecav.com.au 2 3688403 2011-09-20 01:32:40
2546419 cw-arts.org 1 18834615 2011-09-20 01:32:41
2546420 dbrau.ac.in 4 127198 2011-09-20 01:32:41
2546421 emggolf.com.au 1 21261965 2011-09-20 01:32:42
2546422 localtipsforgoinggreen.x10.mx 0 15392 2011-09-20 01:32:43
2546423 curiousresearch.com 0 No Rank 2011-09-20 01:32:44
2546424 aspectshutters.com.au 0 No Rank 2011-09-20 01:32:44
2546425 mesilah.com 3 No Rank 2011-09-20 01:32:46
2546426 cure-cafe.com 1 No Rank 2011-09-20 01:32:46
2546427 justdev.com 0 No Rank 2011-09-21 14:33:34
2546428 usetact.net 0 No Rank 2011-09-20 01:32:48
2546429 cuniculture.com 0 27867649 2011-09-20 01:32:50
2546430 iama.org.au 5 3593131 2011-09-20 01:32:50
2546431 jsbon.co.kr 0 No Rank 2011-09-20 01:32:51
2546432 englewoodridge.com.au 4 27564723 2011-09-20 01:32:51
2546433 cunialantonio.com 0 No Rank 2011-09-20 01:32:52
2546434 rivkasreviews.com 1 No Rank 2011-09-20 01:32:52
2546435 gzhsled.com 0 No Rank 2011-09-21 15:24:03
2546436 kasumi-d.jp 4 No Rank 2011-09-20 01:32:53
2546437 rul-lan.com 2 No Rank 2011-09-20 01:32:54
2546438 golfcaddy.com.au 2 19373130 2011-09-20 01:32:55
2546439 greentrucks.com.au 0 No Rank 2011-09-20 01:32:55
2546440 cuneytakeroglu.com 3 5720496 2011-09-20 01:32:55
2546441 dek.spc.org 4 4083011 2011-09-20 01:32:55
2546442 bak.spc.org 5 4083011 2011-09-20 01:32:56
2546443 bit.spc.org 0 4083011 2011-09-20 01:32:57
2546444 wheatbeltclc.com.au 2 No Rank 2011-09-20 01:32:57
2546445 matuan9.com 2 3066462 2011-09-20 01:32:59
2546446 cumbestrealty.com 2 16901813 2011-09-20 01:32:59
2546447 otech-pb.de 2 No Rank 2011-09-20 01:33:00
2546448 cumulussoundsolutions.com 3 No Rank 2011-09-20 01:33:00
2546449 killy.co.jp 1 No Rank 2011-09-20 01:33:00
2546450 integritywealth.com.au 0 No Rank 2011-09-20 01:33:01
2546451 kitenge.com 0 19835797 2011-09-20 01:33:02
2546452 ntls.com.au 1 No Rank 2011-09-20 01:33:03
2546453 hot-wired.com.au 1 19170558 2011-09-20 01:33:03
2546454 anranhw.com 1 No Rank 2011-09-20 01:33:05
2546455 cumberlandneurosurgeryandspine.com 1 No Rank 2011-09-20 01:33:07
2546456 bahnshop.de 4 25383917 2011-09-20 01:33:09
2546457 jezweb.com.au 4 1341569 2011-09-20 01:33:09
2546458 kidsactivities.com.au 3 25473004 2011-09-20 01:33:10
2546459 kevinmckenziehair.com.au 3 11307157 2011-09-20 01:33:12
2546460 web.bmti.it 5 5953298 2011-09-20 01:33:13
2546461 lturfly.com 3 83784 2011-09-20 01:33:13
2546462 cufflinks-manufacturer.com 2 11004064 2011-09-20 01:33:13
2546463 syncsort.ru 1 No Rank 2011-09-20 01:33:13
2546464 lakecharters.com.au 2 26803245 2011-09-20 01:33:14
2546465 jindent.com 4 3299450 2011-09-20 01:33:14
2546466 kiteschool.com.au 2 No Rank 2011-09-20 01:33:14
2546467 blkdeer.com 2 No Rank 2011-09-20 01:33:15
2546468 iqsengg.com 0 No Rank 2011-09-20 01:33:15
2546469 kitatec.com 4 No Rank 2011-09-20 01:33:15
2546470 harnesssafety.com.au 0 No Rank 2011-09-20 01:33:15
2546471 idealo.mobi 0 19295722 2011-09-20 01:33:15
2546472 sdncedu.com 2 No Rank 2011-09-20 01:33:16
2546473 cuemir.com 2 No Rank 2011-09-20 01:33:16
2546474 macpune.com 0 No Rank 2011-09-20 01:33:17
2546475 cullercopy.com 0 No Rank 2011-09-20 01:33:18
2546476 lake-escape.com.au 3 No Rank 2011-09-20 01:33:18
2546477 avocadomotorinn.com.au 0 18873630 2011-09-20 01:33:19
2546478 lakemacquariemortgages.com.au 0 No Rank 2011-09-20 01:33:21
2546479 cubuk.gov.tr 6 10328727 2011-09-20 01:33:21
2546480 cupe3799.ca 4 No Rank 2011-09-20 01:33:22
2546481 leonards.com.au 0 23680741 2011-09-20 01:33:22
2546482 forum.l2.lt 0 3240121 2011-09-20 01:33:23
2546483 ctsalsa.com 3 10648684 2011-09-20 01:33:24
2546484 maitlanddiesel.com.au 2 7322736 2011-09-20 01:33:24
2546485 1889enoteca.com.au 3 5386272 2011-09-20 01:33:24
2546486 sou-sei.com 3 No Rank 2011-09-20 01:33:27
2546487 201enbn.org 0 No Rank 2011-09-20 01:33:27
2546488 ctomentor.com 2 19744148 2011-09-20 01:33:27
2546489 maureen.com.au 3 No Rank 2011-09-20 01:33:29
2546490 allradio.nl 4 137250 2011-09-20 01:33:30
2546491 dflinks.com 3 8854848 2011-09-20 01:33:30
2546492 mc-s.com.au 1 No Rank 2011-09-20 01:33:31
2546493 abss.net.au 1 No Rank 2011-09-20 01:33:31
2546494 da.t2i.info 2 537694 2011-09-20 01:33:33
2546495 newfire.com.au 2 No Rank 2011-09-20 01:33:33
2546496 bozeman.com 3 No Rank 2011-09-20 01:33:35
2546497 blackip.org 2 26885810 2011-09-20 01:33:35
2546498 ctcl.ca 2 No Rank 2011-09-20 01:33:35
2546499 ct-drives.com 1 No Rank 2011-09-20 01:33:35
2546500 aoshida.net 0 No Rank 2011-09-20 01:33:35
2546501 qce.com.au 1 No Rank 2011-09-20 01:33:36
2546502 fulrath.com 0 No Rank 2011-09-20 01:33:37
2546503 outovate.com.au 0 No Rank 2011-09-20 01:33:38
2546504 cssdesk.com 5 305811 2011-09-20 01:33:39
2546505 csorvas.hu 4 13664128 2011-09-20 01:33:41
2546506 oilman.com.au 2 26972863 2011-09-20 01:33:43
2546507 bluestarpest.com.au 1 No Rank 2011-09-20 01:33:43
2546508 pearson.net.au 1 No Rank 2011-09-20 01:33:44
2546509 levchin.com 4 1641359 2011-09-20 01:33:46
2546510 csodacsiga.hu 5 1510587 2011-09-20 01:33:46
2546511 helapid.com 0 No Rank 2011-09-20 01:33:46
2546512 austilequipment.com.au 1 No Rank 2011-09-20 01:33:47
2546513 projectorsonline.com.au 0 18075127 2011-09-20 01:33:49
2546514 elantas.com 4 1654985 2011-09-20 01:33:51
2546515 csbourgogne.free.fr 0 207 2011-09-20 01:33:51
2546516 univeyor.dk 4 18670694 2011-09-20 01:33:51
2546517 njequip.com 0 No Rank 2011-09-20 01:33:51
2546518 bohlding.nl 4 8134863 2011-09-20 01:33:52
2546519 ketchco.org 0 No Rank 2011-09-20 01:33:53
2546520 propower.com.au 1 28074848 2011-09-20 01:33:53
2546521 australianfm.com.au 1 2808970 2011-09-20 01:33:54
2546522 physiohealth.com.au 2 10932270 2011-09-20 01:33:54
2546523 dot-seo.com 1 3096702 2011-09-20 01:33:55
2546524 e.holol.net 3 202702 2011-09-20 01:33:55
2546525 csatforum.com 0 8078643 2011-09-20 01:33:56
2546526 claassen.nu 2 No Rank 2011-09-21 15:21:45
2546527 biowatch.ca 3 No Rank 2011-09-20 01:33:57
2546528 howarah.com 2 24927432 2011-09-20 01:33:57
2546529 onayzah.com 0 22365617 2011-09-20 01:33:57
2546530 rawcourts.com.au 0 16119431 2011-09-20 01:33:58
2546531 generali.hr 5 7887390 2011-09-21 12:45:05
2546532 crystalxobatkeputihan.com 0 4272815 2011-09-20 01:33:59
2546533 phone-d.com 2 1118198 2011-09-20 01:34:01
2546534 bestumb.net 1 No Rank 2011-09-20 01:34:01
2546535 sailandshade.com.au 1 No Rank 2011-09-20 01:34:02
2546536 prolost.com 5 285801 2011-09-20 01:34:02
2546537 pancegla.pl 2 3816163 2011-09-20 20:20:21
2546538 startinnovationcentre.com.au 0 No Rank 2011-09-20 01:34:06
2546539 crystals-labyrinths-healing-blog.com 2 27404778 2011-09-20 01:34:09
2546540 botched.com 2 413463 2011-09-20 01:34:10
2546541 technologyspectator.com.au 5 224747 2011-09-20 01:34:10
2546542 crystal-perfection.com 3 No Rank 2011-09-20 01:34:10
2546543 divalls.com.au 2 No Rank 2011-09-20 01:34:12
2546544 wow.siteafzar.com 0 22625493 2011-09-20 01:34:14
2546545 cryforisrael.com 0 No Rank 2011-09-20 01:34:16
2546546 transport-tycoon.classicgamingpresents.com 0 3768661 2011-09-20 01:34:16
2546547 tjclarkandsons.com.au 1 No Rank 2011-09-20 01:34:17
2546548 tresbonbakeries.com.au 0 No Rank 2011-09-20 01:34:17
2546549 calvario.cc 1 20935438 2011-09-20 01:34:18
2546550 wwn-net.org 4 No Rank 2011-09-20 01:34:19
2546551 cruxifusion.ca 1 No Rank 2011-09-20 01:34:19
2546552 tippy.com.au 3 No Rank 2011-09-20 01:34:21
2546553 tradews.com 3 4558074 2011-09-20 01:34:21
2546554 weather.hovezi.tk 0 No Rank 2011-09-20 01:34:22
2546555 cruw.net 0 No Rank 2011-09-20 01:34:24
2546556 arno.org.uk 4 11589489 2011-09-20 01:34:24
2546557 helgaspetresort.com.au 0 No Rank 2011-09-20 01:34:25
2546558 crunchycursive.com 2 23217678 2011-09-20 01:34:25
2546559 sporsic.com 1 9382187 2011-09-20 01:34:27
2546560 cititour.ru 1 No Rank 2011-09-20 01:34:27
2546561 agronavt.ru 1 12637962 2011-09-20 01:34:27
2546562 crumbcrazy.com 1 No Rank 2011-09-20 01:34:28
2546563 bakertec.com.au 0 No Rank 2011-09-21 14:11:58
2546564 turningpointeacademy.com.au 0 No Rank 2011-09-20 01:34:28
2546565 villages.com.au 4 707486 2011-09-20 01:34:29
2546566 ymaa.com.pl 3 12447101 2011-09-20 01:34:29
2546567 hotel-q.net 0 5792123 2011-09-20 01:34:31
2546568 fotocavo.nl 2 No Rank 2011-09-20 01:34:31
2546569 alacris.com 0 No Rank 2011-09-20 01:34:31
2546570 sifchem.com 3 7986963 2011-09-20 01:34:32
2546571 visionhomes.com.au 1 6465897 2011-09-20 01:34:32
2546572 cruisesfrombaltimore.net 0 No Rank 2011-09-20 01:34:32
2546573 crrfire.com 0 No Rank 2011-09-20 01:34:32
2546574 wakewood.com.au 0 No Rank 2011-09-20 01:34:33
2546575 cottagecakes.com.au 1 10370448 2011-09-20 01:34:34
2546576 wpc.org.au 2 22395065 2011-09-20 01:34:36
2546577 crowsline.com 0 22747442 2011-09-20 01:34:37
2546578 talisman.ru 1 No Rank 2011-09-20 01:34:37
2546579 yunda.com.au 2 No Rank 2011-09-20 01:34:37
2546580 clinic28.nl 2 6160835 2011-09-20 01:34:39
2546581 ibctote.com 2 13140857 2011-09-20 01:34:41
2546582 allmen.com.au 1 14648906 2011-09-20 01:34:42
2546583 tlmw.com.vn 1 6483659 2011-09-20 01:34:44
2546584 arc.iit.edu 4 42388 2011-09-20 01:34:45
2546585 makeage.com 0 No Rank 2011-09-21 15:13:28
2546586 books.skyrimleaked.blogspot.com.pk 0 18703776 2011-09-21 15:25:20
2546587 juudian.com 4 1054397 2011-09-20 01:34:47
2546588 pime.org.br 4 455412 2011-09-20 01:34:48
2546589 orthotek.gr 2 27996045 2011-09-20 01:34:49
2546590 crossfitsouthaurora.com 2 No Rank 2011-09-20 01:34:49
2546591 boc-ins.com 6 7219078 2011-09-21 15:13:38
2546592 crossfitchupacabra.com 1 8153986 2011-09-20 01:34:49
2546593 flameproofengineering.com.au 3 No Rank 2011-09-20 01:34:52
2546594 crosscoinc.com 1 No Rank 2011-09-20 01:34:53
2546595 mundome.com 0 4413 2011-09-20 01:34:54
2546596 gamesmk.com 0 25277142 2011-09-20 01:34:54
2546597 ingetesa.cl 1 No Rank 2011-09-20 01:34:55
2546598 backontrack.com.au 0 No Rank 2011-09-20 01:34:55
2546599 crosario.com 1 No Rank 2011-09-20 01:34:56
2546600 belaqua.com.au 0 No Rank 2011-09-20 01:34:58
2546601 dir.hovezi.tk 0 No Rank 2011-09-20 01:34:59
2546602 joniskis.lt 5 7570644 2011-09-20 01:34:59
2546603 higaoku.com 2 No Rank 2011-09-20 01:34:59
2546604 rehabfx.com 1 10261066 2011-09-20 01:35:00
2546605 stillcon.com.au 0 No Rank 2011-09-20 01:35:01
2546606 gotfuel.org 0 No Rank 2011-09-20 01:35:01
2546607 crohnworld.org 1 No Rank 2011-09-20 01:35:01
2546608 crnci-theblacks.com 4 No Rank 2011-09-21 14:53:49
2546609 gptinfra.in 0 6666415 2011-09-20 01:35:05
2546610 criticalthinkingseminars.com 0 No Rank 2011-09-20 01:35:06
2546611 forceit.com.au 1 No Rank 2011-09-20 01:35:07
2546612 allambie-murray.com.au 1 18286707 2011-09-20 01:35:07
2546613 ulenburg.de 0 No Rank 2011-09-20 01:35:09
2546614 ccartsc.com 3 No Rank 2011-09-20 01:35:09
2546615 dreambuilders.com.au 2 2687493 2011-09-20 01:35:09
2546616 cerams.info 0 No Rank 2011-09-20 01:35:10
2546617 diesing.org 0 No Rank 2011-09-20 01:35:11
2546618 fizakat.com 1 No Rank 2011-09-20 01:35:12
2546619 cristalita.com.ar 3 No Rank 2011-09-20 01:35:12
2546620 ipension.ru 3 No Rank 2011-09-20 01:35:12
2546621 interiordesignergoldcoast.com.au 2 No Rank 2011-09-20 01:35:13
2546622 critterminute.com 2 2555639 2011-09-20 01:35:14
2546623 hatchnm.biz 2 No Rank 2011-09-20 01:35:14
2546624 yatsani.com 5 No Rank 2011-09-20 01:35:15
2546625 cricklewoodsecretgarden.com 0 27758920 2011-09-20 01:35:17
2546626 marketconsulting.com.au 1 No Rank 2011-09-20 01:35:17
2546627 cricutcakecutter.com 0 26006912 2011-09-20 01:35:18
2546628 mtbo.com.au 3 No Rank 2011-09-20 01:35:19
2546629 thedivine.com.au 3 9534658 2011-09-20 01:35:20
2546630 cricketchaupal.com 0 14089558 2011-09-20 01:35:22
2546631 cricinsite.com 1 No Rank 2011-09-20 01:35:23
2546632 koishop.org 3 5416436 2011-09-20 01:35:24
2546633 sleepinggiant.com.au 3 3955486 2011-09-20 01:35:24
2546634 bramham.org 0 No Rank 2011-09-20 01:35:25
2546635 crewed-sailing-charters.com 0 No Rank 2011-09-20 01:35:26
2546636 stilago.com 1 2005585 2011-09-21 14:37:27
2546637 photoscenic.com.au 2 16306189 2011-09-20 01:35:27
2546638 zeseiken.nl 0 No Rank 2011-09-20 01:35:28
2546639 crestonwood.com 0 13836879 2011-09-21 14:10:03
2546640 origintraders.com.au 0 9433929 2011-09-20 01:35:29
2546641 paladnn.com 0 No Rank 2011-09-20 01:35:29
2546642 mondysbmclinic.com.au 1 24519763 2011-09-20 01:35:30
2546643 cresthaven-apartments.com 0 No Rank 2011-09-20 01:35:32
2546644 linazul.com 1 No Rank 2011-09-20 01:35:33
2546645 kkterra.ru 4 17081534 2011-09-20 01:35:33
2546646 kamakudy.cz 3 12369429 2011-09-20 01:35:35
2546647 bocini.com.au 4 2844609 2011-09-20 01:35:35
2546648 zsxf119.com 2 No Rank 2011-09-20 01:35:37
2546649 sweetgirl.com.au 0 1785160 2011-09-20 01:35:38
2546650 crenshawlumber.com 2 23554175 2011-09-20 01:35:39
2546651 crer.com 2 3425296 2011-09-20 01:35:40
2546652 highwood.nl 0 No Rank 2011-09-21 14:10:31
2546653 blog.ydir.de 0 21440249 2011-09-20 01:35:43
2546654 jsfuxin.com 1 3970514 2011-09-20 01:35:44
2546655 crefo-consult-hannover.com 0 No Rank 2011-09-21 12:43:53
2546656 oceanicoffshore.com.au 2 13692155 2011-09-20 01:35:45
2546657 vantageit.com.au 1 No Rank 2011-09-20 01:35:45
2546658 xxcg801.com 2 No Rank 2011-09-20 20:50:13
2546659 pcyt.gov.ec 2 7108893 2011-09-20 01:35:47
2546660 jinbo18.com 0 No Rank 2011-09-20 01:35:47
2546661 creditcard0.net 0 No Rank 2011-09-20 01:35:47
2546662 creditsavingsnut.com 3 No Rank 2011-09-20 01:35:48
2546663 elr.lls.edu 5 219403 2011-09-20 01:35:51
2546664 qzchina.org 2 No Rank 2011-09-21 10:58:08
2546665 creaturesdereves.com 0 No Rank 2011-09-20 01:35:52
2546666 creativeicedesigns.com 0 12154979 2011-09-20 01:35:52
2546667 malinois.lt 3 24440036 2011-09-20 01:35:53
2546668 davmon.com.au 0 No Rank 2011-09-20 01:35:54
2546669 sodas.su.lt 6 363309 2011-09-20 01:35:55
2546670 civilion.nl 3 14805218 2011-09-20 01:35:55
2546671 dimaseo.com 0 No Rank 2011-09-20 01:35:56
2546672 creativecutters.com 3 2686712 2011-09-20 01:35:57
2546673 stepneysaints.com.au 0 No Rank 2011-09-20 01:35:57
2546674 creativefotoconcepts.com 1 No Rank 2011-09-20 01:35:57
2546675 trakkers.ca 3 No Rank 2011-09-20 01:35:57
2546676 gilcomzd.ru 1 12155305 2011-09-20 01:35:59
2546677 yen.spc.org 3 4083011 2011-09-20 01:36:01
2546678 hb-bhjg.com 0 No Rank 2011-09-20 01:36:02
2546679 creative.mapsystems.in 0 8608364 2011-09-20 01:36:03
2546680 shtaitco.com.au 2 No Rank 2011-09-20 01:36:03
2546681 creatingafamily.org 4 845656 2011-09-20 01:36:05
2546682 drpepper.ca 3 3489682 2011-09-20 01:36:06
2546683 assetwise.net.au 1 23852186 2011-09-20 01:36:07
2546684 max.iphone4onderdelen.nl 0 3286995 2011-09-20 01:36:07
2546685 creamore.net 2 16839301 2011-09-20 01:36:08
2546686 pfe-ltd.com 3 No Rank 2011-09-20 01:36:09
2546687 lafanega.es 0 16652795 2011-09-20 01:36:10
2546688 biogasaustralia.com.au 3 11882647 2011-09-20 01:36:10
2546689 crccu.org 1 No Rank 2011-09-21 12:39:26
2546690 crazyxboyfriend.com 0 No Rank 2011-09-20 01:36:11
2546691 jagaman.com 0 No Rank 2011-09-20 01:36:13
2546692 foggolaw.com.au 0 No Rank 2011-09-20 01:36:14
2546693 crapster.com 0 No Rank 2011-09-21 12:55:50
2546694 alley35.com 0 No Rank 2011-09-20 01:36:15
2546695 craigknippenberg.com 3 13370033 2011-09-20 01:36:17
2546696 rposton.org 0 No Rank 2011-09-20 01:36:18
2546697 lotuspot.dk 0 No Rank 2011-09-20 01:36:19
2546698 zhgjrlc.com 1 10534090 2011-09-20 01:36:20
2546699 craftatlanta.com 0 No Rank 2011-09-20 01:36:20
2546700 9idushu.com 0 No Rank 2011-09-21 11:40:07
2546701 2mo.net.au 3 No Rank 2011-09-20 01:36:22
2546702 irtc.org.ua 5 4633493 2011-09-20 01:36:24
2546703 cpokarcheroutlet.com 1 No Rank 2011-09-20 01:36:26
2546704 heshbon.com 3 16130163 2011-09-21 15:10:17
2546705 cfpsych.com 0 20025366 2011-09-20 01:36:27
2546706 afumati.net 0 10114268 2011-09-20 01:36:28
2546707 hazells.com.au 1 No Rank 2011-09-20 01:36:30
2546708 2give.co.il 4 9566907 2011-09-20 01:36:31
2546709 blog.ydirs.de 0 14957670 2011-09-20 01:36:32
2546710 neopower.com.au 4 17161417 2011-09-20 01:36:33
2546711 es4-mag.com 4 No Rank 2011-09-20 01:36:34
2546712 taylex.com.au 3 20240984 2011-09-20 01:36:34
2546713 aerorescue.com.au 2 28660409 2011-09-21 14:36:55
2546714 cpdiesel.com 0 No Rank 2011-09-20 01:36:35
2546715 zamzama.net 4 7394282 2011-09-20 01:36:36
2546716 pokerstrateg.pl 0 No Rank 2011-09-20 01:36:38
2546717 tybu.com.tw 0 No Rank 2011-09-20 01:36:38
2546718 0859buy.com 0 No Rank 2011-09-20 01:36:40
2546719 vimokkhadhamma.com 4 17534727 2011-09-20 01:36:41
2546720 cpanationaloffice.com 0 No Rank 2011-09-20 01:36:41
2546721 buszpiac.hu 2 No Rank 2011-09-20 01:36:41
2546722 bikevip.com 0 17692000 2011-09-20 01:36:41
2546723 soundsaround.com.au 3 No Rank 2011-09-20 01:36:42
2546724 iwatson.com 3 2723808 2011-09-20 01:36:43
2546725 reversal.com.au 1 No Rank 2011-09-20 01:36:43
2546726 coytekstil.com 2 No Rank 2011-09-20 01:36:44
2546727 films.qc.ca 3 No Rank 2011-09-20 01:36:45
2546728 covell.ca 0 No Rank 2011-09-20 01:36:45
2546729 justjoe.org 2 2127504 2011-09-20 01:36:46
2546730 nojails.com 0 No Rank 2011-09-21 15:22:48
2546731 oncamera.net.au 0 No Rank 2011-09-20 01:36:47
2546732 coutellerie-douris-chastel.com 2 No Rank 2011-09-20 01:36:49
2546733 xcaphat.com 1 17596799 2011-09-20 01:36:49
2546734 erdc.wa.gov 5 3128 2011-09-20 01:36:49
2546735 holidaydalmatia.com 1 No Rank 2011-09-20 01:36:51
2546736 gav-aoc.com 2 No Rank 2011-09-20 01:36:51
2546737 courier-software.com 1 4961361 2011-09-20 01:36:52
2546738 courtreporterconnection.com 0 No Rank 2011-09-20 01:36:52
2546739 carl.pun.jp 0 4824855 2011-09-20 01:36:53
2546740 cyberkey.de 1 No Rank 2011-09-20 01:36:53
2546741 lghm.com.au 2 No Rank 2011-09-20 01:36:54
2546742 optivate.nl 1 No Rank 2011-09-20 01:36:55
2546743 coupontot.com 0 3088963 2011-09-20 01:36:56
2546744 couponphenomenon.com 2 804991 2011-09-20 01:36:57
2546745 lucas3d.com 3 7656632 2011-09-20 01:36:58
2546746 martinsmc.com.au 2 No Rank 2011-09-20 01:37:02
2546747 indexed.iphone4onderdelen.nl 0 3286995 2011-09-20 01:37:04
2546748 impentab.se 3 No Rank 2011-09-20 01:37:05
2546749 yayb.gov.cn 0 No Rank 2011-09-21 15:09:18
2546750 oytrans.com 2 10936437 2011-09-20 01:37:06
2546751 discusfish.ru 4 743855 2011-09-20 01:37:06
2546752 hjclub.info 2 2436029 2011-09-20 01:37:07
2546753 councilgrovemarina.com 3 No Rank 2011-09-20 01:37:10
2546754 electronicmarine.com.au 2 No Rank 2011-09-20 01:37:10
2546755 pbjerrum.dk 2 No Rank 2011-09-20 01:37:10
2546756 countryginghamonline.com 1 No Rank 2011-09-20 01:37:12
2546757 vgfc.com.au 2 21797376 2011-09-20 01:37:12
2546758 pancevac.eu 0 19365681 2011-09-20 01:37:15
2546759 cougarprideboosterclub.com 0 No Rank 2011-09-20 01:37:17
2546760 qpsport.com 2 No Rank 2011-09-20 01:37:17
2546761 jeffira.org 1 No Rank 2011-09-21 14:42:41
2546762 moneycentre.net.au 0 12417413 2011-09-20 01:37:19
2546763 cougarslover.com 1 No Rank 2011-09-20 01:37:19
2546764 cosodablast.com 0 No Rank 2011-09-20 01:37:21
2546765 flupesd.org 2 No Rank 2011-09-20 01:37:21
2546766 sdksncp.com 3 No Rank 2011-09-20 01:37:22
2546767 mypiggy.org 0 No Rank 2011-09-20 01:37:23
2546768 frl-post.nl 2 16925957 2011-09-20 01:37:23
2546769 advancemotel.com.au 2 9230685 2011-09-20 01:37:23
2546770 stejobs.com 4 No Rank 2011-09-20 01:37:24
2546771 sbnews.co.il 4 24296460 2011-09-20 01:37:24
2546772 cosmosexport.com 0 12447815 2011-09-20 01:37:24
2546773 bianlun.net 4 475126 2011-09-20 01:37:25
2546774 completepower.com.au 2 12535969 2011-09-20 01:37:27
2546775 cosmopolitaninc.com 0 17977771 2011-09-20 01:37:28
2546776 99tianyi.cn 0 No Rank 2011-09-20 01:37:30
2546777 sddzrhf.com 3 17595195 2011-09-20 01:37:30
2546778 vis.lls.edu 5 219403 2011-09-20 01:37:31
2546779 cosmetologiefair.com 2 27500283 2011-09-20 01:37:31
2546780 cosme-fairy.com 0 No Rank 2011-09-20 01:37:32
2546781 falckbhv.nl 4 18528430 2011-09-20 01:37:33
2546782 holidaysnoproblem.com 0 No Rank 2011-09-21 14:22:46
2546783 demeric.com 2 No Rank 2011-09-20 01:37:36
2546784 corvetteclocks.com 3 16720445 2011-09-20 01:37:37
2546785 cos7.net 0 No Rank 2011-09-20 01:37:37
2546786 alfa-tec.gr 0 No Rank 2011-09-21 14:47:32
2546787 prestige.si 0 18612194 2011-09-20 01:37:40
2546788 cortijolacepa.com 0 No Rank 2011-09-20 01:37:41
2546789 turnwald.de 0 No Rank 2011-09-20 01:37:45
2546790 corplimo.com 3 15756623 2011-09-20 01:37:46
2546791 bem.com.au 2 23111034 2011-09-20 01:37:46
2546792 rotatrim.us 4 5248641 2011-09-20 01:37:47
2546793 cutc.com.cn 4 No Rank 2011-09-21 14:39:58
2546794 chrisbrookbuilder.com.au 2 No Rank 2011-09-20 01:37:47
2546795 tohokai.net 3 No Rank 2011-09-20 01:37:49
2546796 corpsecostume.net 0 13611086 2011-09-20 01:37:49
2546797 nhcares.net 3 No Rank 2011-09-20 01:37:51
2546798 corpadvertising.net 0 No Rank 2011-09-20 01:37:51
2546799 ltv-nrw.com 2 20720576 2011-09-20 01:37:52
2546800 churchilldental.com.au 1 20137640 2011-09-20 01:37:52
2546801 trias-tk.de 2 No Rank 2011-09-20 01:37:55
2546802 ccespana.cl 6 2373851 2011-09-20 01:37:55
2546803 cornerstone-ok.com 1 No Rank 2011-09-20 01:37:55
2546804 chace-c.com 2 No Rank 2011-09-20 01:37:55
2546805 dombaza.com 2 1595989 2011-09-20 01:37:56
2546806 kingsberryproperty.com.au 2 14008867 2011-09-20 01:37:56
2546807 rioworks.jp 0 No Rank 2011-09-20 01:37:56
2546808 bohae.co.kr 2 No Rank 2011-09-21 14:13:17
2546809 harboursideautomarine.com.au 3 20834910 2011-09-20 01:38:01
2546810 beauvais.dk 4 25727434 2011-09-20 01:38:03
2546811 wwe2012.com 4 No Rank 2011-09-20 01:38:03
2546812 thinkdog.it 4 1714657 2011-09-20 01:38:04
2546813 woodgateclub.com.au 2 No Rank 2011-09-20 01:38:06
2546814 freewallpaperspot.com 0 No Rank 2011-09-20 01:38:07
2546815 cornerconsoletable.info 0 No Rank 2011-09-20 01:38:07
2546816 pyck001.com 0 No Rank 2011-09-20 01:38:07
2546817 hondeal.com 1 No Rank 2011-09-20 01:38:07
2546818 corinthbaptistchurch.net 0 No Rank 2011-09-20 01:38:11
2546819 hortworks.com.au 3 No Rank 2011-09-20 01:38:14
2546820 thesharkpower.huhohi.com 0 720389 2011-09-20 01:38:14
2546821 corianstore.com.ar 0 No Rank 2011-09-20 01:38:15
2546822 kmp2010.com 3 21811666 2011-09-20 01:38:16
2546823 economia.cz 6 No Rank 2011-09-20 01:38:19
2546824 phase5.info 5 460066 2011-09-20 01:38:20
2546825 urjas.mx.am 0 961556 2011-09-21 14:53:40
2546826 cordisco.be 0 13466654 2011-09-20 01:38:21
2546827 csnry.xe.cx 0 458834 2011-09-20 01:38:22
2546828 malmallingvineyard.com.au 2 No Rank 2011-09-20 01:38:22
2546829 coralcolours.co.il 0 No Rank 2011-09-20 01:38:26
2546830 sthaiji.com 0 No Rank 2011-09-20 01:38:27
2546831 txplumbingcontractor.com 1 No Rank 2011-09-20 01:38:28
2546832 rwday.co.uk 0 No Rank 2011-09-20 01:38:28
2546833 copyreklam.hr 1 3386205 2011-09-20 01:38:28
2546834 ampswap.com 0 No Rank 2011-09-20 01:38:29
2546835 deepwhy.com 1 No Rank 2011-09-20 01:38:29
2546836 miopalazzo.com.au 0 No Rank 2011-09-20 01:38:30
2546837 copycon.com 3 9750067 2011-09-20 01:38:30
2546838 frcheng.com 0 No Rank 2011-09-20 01:38:33
2546839 roomz4u.com 0 No Rank 2011-09-20 01:38:34
2546840 advscaff.com.au 3 No Rank 2011-09-20 01:38:34
2546841 coppet.info 0 No Rank 2011-09-20 01:38:35
2546842 copanocomfort.com 0 No Rank 2011-09-20 01:38:37
2546843 mewziks.com 0 No Rank 2011-09-20 01:38:37
2546844 hy-waysunvisors.com.au 0 No Rank 2011-09-20 01:38:39
2546845 coopertisdale.com 2 869 2011-09-20 01:38:40
2546846 taira.co.jp 2 No Rank 2011-09-20 01:38:42
2546847 coolcribsrealestate.com 1 No Rank 2011-09-20 01:38:43
2546848 cool-counter.de 2 25312561 2011-09-20 01:38:45
2546849 mb-seki.com 3 No Rank 2011-09-20 01:38:46
2546850 maluweb.com 5 No Rank 2011-09-20 01:38:47
2546851 corunna.org 0 No Rank 2011-09-20 01:38:48
2546852 midlandholidaypark.com.au 1 No Rank 2011-09-20 01:38:48
2546853 excitum.com 0 No Rank 2011-09-21 12:29:57
2546854 cookseymd.com 1 No Rank 2011-09-20 01:38:49
2546855 cookmemorialbaptist.org 0 No Rank 2011-09-20 01:38:51
2546856 wwvv.uqc.cn 4 71919 2011-09-20 01:38:52
2546857 stabilo.com 5 305529 2011-09-20 01:38:52
2546858 kilcullenconstructions.com.au 1 No Rank 2011-09-20 01:38:53
2546859 patrickmint.com 3 21953575 2011-09-20 01:38:55
2546860 genotipo.cl 2 25286703 2011-09-20 01:38:56
2546861 deptford.tv 4 16469875 2011-09-20 01:38:56
2546862 imcc.com.cn 1 No Rank 2011-09-20 01:38:57
2546863 cookinglighter.com 0 No Rank 2011-09-20 01:38:57
2546864 oicservices.com.au 2 19927623 2011-09-20 01:38:58
2546865 convergingstreams.com 2 No Rank 2011-09-20 01:38:59
2546866 hisport.com 0 15149771 2011-09-20 01:39:00
2546867 continentalcorporation.com.mx 0 No Rank 2011-09-20 01:39:00
2546868 zlimama.com 2 671499 2011-09-20 01:39:02
2546869 contempgroup.com 1 9186244 2011-09-20 01:39:02
2546870 rmpcorp.net 2 22263924 2011-09-20 01:39:04
2546871 cycf.org.cn 5 188674 2011-09-20 01:39:05
2546872 cjpreston.com.au 2 18053726 2011-09-20 01:39:06
2546873 know-it.org 2 No Rank 2011-09-20 01:39:06
2546874 contagiarelplacerdeleer.com 0 No Rank 2011-09-20 01:39:07
2546875 szcypcb.com 0 No Rank 2011-09-20 01:39:07
2546876 ccc.unc.edu 5 6546 2011-09-20 01:39:08
2546877 contactacademy.nl 3 No Rank 2011-09-20 01:39:10
2546878 cjdirect.de 3 3340042 2011-09-20 01:39:11
2546879 lakerussellgallery.com.au 2 No Rank 2011-09-20 01:39:11
2546880 construction4seigneurs.com 2 6418466 2011-09-20 01:39:13
2546881 longislandmediationgroup.com 0 19518346 2011-09-20 01:39:13
2546882 xjkj.gov.cn 4 No Rank 2011-09-20 01:39:14
2546883 consiliummedia.com 4 4506985 2011-09-20 01:39:14
2546884 kamiyama.jp 1 No Rank 2011-09-20 01:39:14
2546885 edp.com.au 2 20118788 2011-09-20 01:39:16
2546886 jeddah3.com 1 938803 2011-09-20 01:39:17
2546887 flintgasprices.com 4 4731001 2011-09-20 01:39:17
2546888 vantanls.jp 2 2842504 2011-09-20 01:39:17
2546889 conradcolman.com 2 No Rank 2011-09-20 01:39:18
2546890 desiredwebhosting.com 0 22257725 2011-09-21 14:36:26
2546891 tosanya.net 2 No Rank 2011-09-21 12:36:15
2546892 connieandcurtis.com 1 22072354 2011-09-20 01:39:21
2546893 thermofab.com.au 2 No Rank 2011-09-20 01:39:21
2546894 fsnl.nic.in 4 6546969 2011-09-20 01:39:21
2546895 connectorsinc.net 0 No Rank 2011-09-21 13:30:25
2546896 nachtzug.de 6 15799816 2011-09-20 01:39:23
2546897 abo-mehr.de 3 No Rank 2011-09-20 01:39:24
2546898 johnsmallhealth.com.au 3 No Rank 2011-09-20 01:39:25
2546899 sriwana.com 4 24832066 2011-09-20 01:39:27
2546900 jiajiky.com 0 No Rank 2011-09-20 20:27:07
2546901 computingplugs.com 0 2322565 2011-09-21 15:37:32
2546902 congressosapfac.com 3 13968308 2011-09-20 01:39:31
2546903 mdnutritionals.com.au 1 8277204 2011-09-20 01:39:31
2546904 tranwin.net 2 3237189 2011-09-20 01:39:32
2546905 confessionsofablogvixen.com 3 1717989 2011-09-20 01:39:33
2546906 graatis.com 0 No Rank 2011-09-20 01:39:34
2546907 glsroof.com 2 No Rank 2011-09-20 01:39:35
2546908 conectivagroup.com 0 No Rank 2011-09-20 01:39:36
2546909 bunnik73.nl 2 No Rank 2011-09-21 14:20:13
2546910 rmc-info.nl 0 No Rank 2011-09-21 13:31:42
2546911 condonews.net 0 13249949 2011-09-20 01:39:38
2546912 herbertmidgley.com 4 3778834 2011-09-20 01:39:39
2546913 igtextil.es 3 19817516 2011-09-20 20:54:14
2546914 snobake.com 3 21486265 2011-09-20 01:39:42
2546915 teyfasa.com 0 No Rank 2011-09-20 01:39:42
2546916 condomvendingmachine.net 1 24206263 2011-09-20 01:39:43
2546917 fareone.com 1 19848132 2011-09-20 01:39:44
2546918 hostbih.com 2 13396453 2011-09-20 01:39:44
2546919 lsdental.gr 2 8369312 2011-09-20 01:39:45
2546920 condeso-training.com 2 13402110 2011-09-20 01:39:45
2546921 midwestconcrete.com.au 2 No Rank 2011-09-20 01:39:47
2546922 cejn.com.au 2 No Rank 2011-09-20 01:39:47
2546923 nsaudiology.com.au 1 18937266 2011-09-20 01:39:49
2546924 arch.xtr.jp 0 594112 2011-09-20 01:39:49
2546925 petsland.gr 0 9555642 2011-09-20 01:39:49
2546926 concretecoaching.eu 2 No Rank 2011-09-20 01:39:49
2546927 concreteliftingusa.com 1 No Rank 2011-09-20 01:39:50
2546928 karunaa.net 0 No Rank 2011-09-20 01:39:55
2546929 concrete-news.org 0 No Rank 2011-09-20 01:39:56
2546930 bezplotu.cz 1 No Rank 2011-09-20 01:39:58
2546931 jaapkrol.nl 3 No Rank 2011-09-20 01:39:58
2546932 concertpianos.com 0 12500999 2011-09-20 01:39:59
2546933 ledenice.cz 4 7123848 2011-09-20 01:40:00
2546934 aso-kuju.jp 4 8169168 2011-09-20 01:40:00
2546935 triggervalesheepstuds.com.au 2 No Rank 2011-09-20 01:40:00
2546936 conceptsnet.com 2 12771921 2011-09-20 01:40:01
2546937 asonmon.com 3 9140675 2011-09-20 01:40:03
2546938 pawsnet.net 0 No Rank 2011-09-20 01:40:03
2546939 conceptsinoptics.biz 1 No Rank 2011-09-21 13:36:09
2546940 conceptiontile.com 2 No Rank 2011-09-20 01:40:07
2546941 cmzc.org.ar 1 9067696 2011-09-20 01:40:07
2546942 kineticcnc.com.au 0 No Rank 2011-09-20 01:40:07
2546943 spartom.com 0 No Rank 2011-09-20 01:40:08
2546944 tamarab.com 2 No Rank 2011-09-20 01:40:08
2546945 honkytonk101radio.com 0 7687264 2011-09-20 01:40:09
2546946 annalee.net 3 No Rank 2011-09-20 01:40:10
2546947 sohu163.net 0 No Rank 2011-09-21 14:04:55
2546948 computercourses3.com 0 No Rank 2011-09-20 01:40:12
2546949 id2.siteafzar.com 0 22625493 2011-09-21 11:33:12
2546950 btyy.com.cn 5 No Rank 2011-09-20 01:40:13
2546951 treville.hovezi.tk 0 No Rank 2011-09-20 01:40:14
2546952 computer-vision-software.com 2 2941972 2011-09-20 01:40:14
2546953 protecdoors.com.au 0 24531649 2011-09-20 01:40:15
2546954 compumaxweb.com 0 No Rank 2011-09-20 01:40:15
2546955 mfareed.com 0 28012199 2011-09-20 01:40:15
2546956 huanjue.org 1 1245480 2011-09-20 01:40:17
2546957 comprov.ufcg.edu.br 5 103090 2011-09-20 01:40:19
2546958 plastech.it 1 No Rank 2011-09-20 01:40:19
2546959 lcbaike.net 0 No Rank 2011-09-20 01:40:19
2546960 chenlu907.blog.sohu.com 3 44 2011-09-21 14:13:33
2546961 mimwinteracupuncture.com 2 No Rank 2011-09-20 01:40:19
2546962 accpt-g.com 3 No Rank 2011-09-20 01:40:21
2546963 compresseurs.pj.ca 0 1249729 2011-09-20 01:40:21
2546964 fshaoji.com 0 No Rank 2011-09-20 01:40:22
2546965 comprehensivetestingservices.com 0 No Rank 2011-09-20 01:40:23
2546966 flysa.co.uk 0 No Rank 2011-09-20 01:40:25
2546967 radyoiz.com 4 2782018 2011-09-21 14:14:00
2546968 garfield.cz 1 4030469 2011-09-21 14:46:46
2546969 composium.com 1 18326690 2011-09-20 01:40:28
2546970 complexplastic.com 0 2734149 2011-09-20 01:40:29
2546971 marketingoffice.com.au 3 6042289 2011-09-20 01:40:29
2546972 fotobank.az 2 1249892 2011-09-20 01:40:31
2546973 roseannebarr.co.uk 2 8596723 2011-09-20 01:40:33
2546974 goedkopeautoverzekering.net 1 9928411 2011-09-20 01:40:33
2546975 compgun-tech.com 0 No Rank 2011-09-20 01:40:34
2546976 inverta.org 3 3641821 2011-09-20 01:40:34
2546977 compiledlogic.com 4 No Rank 2011-09-20 01:40:35
2546978 liam.org.il 1 No Rank 2011-09-20 01:40:35
2546979 peerlessactivewear.com.au 2 No Rank 2011-09-20 01:40:36
2546980 sinumed.net 1 27721638 2011-09-21 10:37:56
2546981 naamrei.org 3 No Rank 2011-09-20 01:40:37
2546982 mhdalal.com 2 No Rank 2011-09-20 01:40:37
2546983 communitysolutionsinitiative.org 3 No Rank 2011-09-20 01:40:39
2546984 comparediet.com 0 No Rank 2011-09-20 01:40:39
2546985 fsmh.com.cn 0 No Rank 2011-09-20 01:40:42
2546986 communitypoint.ca 3 20841257 2011-09-20 01:40:44
2546987 commission-central.iphone4onderdelen.nl 0 3286995 2011-09-20 01:40:44
2546988 nov-orchidee.nl 5 4700408 2011-09-20 01:40:44
2546989 communitypress.ca 5 429750 2011-09-20 01:40:45
2546990 tortours.de 3 25408647 2011-09-20 01:40:45
2546991 globalcomponents.com.au 0 24875277 2011-09-20 01:40:45
2546992 dojocon.org 5 20644226 2011-09-20 01:40:47
2546993 community-action.org 4 No Rank 2011-09-20 01:40:48
2546994 vgarage.net 0 22547330 2011-09-20 01:40:48
2546995 communicat.pk 0 6982337 2011-09-20 01:40:52
2546996 commpaving.com 1 No Rank 2011-09-20 01:40:53
2546997 renault-club.kiev.ua 4 587499 2011-09-21 14:59:19
2546998 fbmcorp.com.au 1 3698133 2011-09-20 01:40:56
2546999 tinache.com 2 No Rank 2011-09-20 01:40:56